sat.trackr.live / text

‹ back to catalog

STARLINK-36675

NORAD 67663 · 2026-022R

PAYLOAD ACTIVE UNKNOWN

§ Identity

Operator
Country
US
Launch date
2026-02-02
Launch site
AFWTR
Launch vehicle
Mass (kg)
RCS (m²)

Purposes: comms

External: N2YO · Heavens-Above · Gunter

§ Orbital elements

Epoch: 2026-05-25T01:57:50.995008Z

Period
93.91 min
Inclination
97.2847°
Eccentricity
0.0001729
Mean motion
15.33449177 rev/d
Perigee alt
464.3 km
Apogee alt
466.7 km
Semi-major
6,843.7 km
B*
4.7613e-4
RAAN
178.3977°
Arg perigee
95.6540°
Mean anomaly
264.4900°
Rev number
1,728

§ Raw data

STARLINK-366751 67663U 26022R   26145.08184022  .00015330  00000+0  47613-3 0  99982 67663  97.2847 178.3977 0001729  95.6540 264.4900 15.33449177 17284

JSON: /api/v1/satellites/67663 · /tle

For live sub-satellite position, see the globe view (requires WebGL).

§ Visibility from observer

Set your observer location to see the next 7 days of passes ≥ 10°. The values pass through the URL so the page stays shareable.

No JS? Fill the form by hand. The geolocation button needs JavaScript.